Wetbulb
65.44 62.86 63.94 60.37 51.02 50.84 49.63 49.67 52.75 53.39 55.69 59.93 66.47 66.16 65.97 67.24 65.32 64.50 77.61 78.42 77.71 76.99 76.00 75.82 77.45 77.78 77.83 77.90 77.73 77.00 76.84 76.82 76.82 76.62 76.52 76.92 77.04 77.12 76.92 76.16 76.36 76.32 75.33 74.54 73.77 73.80 74.22 74.72 74.98
62.42 61.76 61.59 57.54 48.87 46.88 49.03 51.35 52.32 53.89 56.33 59.93 64.65 67.15 65.95 66.57 72.29 75.02 76.50 78.42 77.97 77.08 75.93 73.94 77.07 77.52 77.73 77.62 77.42 77.22 77.07 77.17 76.89 76.69 76.87 77.15 77.07 76.92 76.52 76.21 76.38 75.89 74.91 74.18 73.45 73.69 74.40 74.60 75.03
62.77 60.84 56.77 52.86 49.54 47.08 49.16 51.42 52.72 53.74 57.65 60.51 66.93 69.27 68.18 66.34 71.96 75.26 78.77 79.16 78.12 77.18 76.13 75.71 76.99 77.12 77.27 77.22 77.24 77.24 77.17 77.14 76.94 77.02 76.97 77.07 76.97 76.62 76.27 75.94 76.08 75.73 74.58 73.65 73.07 73.69 74.18 75.02 76.18
60.20 58.60 56.68 50.70 47.33 49.67 50.62 52.62 53.90 53.63 58.58 60.78 67.52 64.71 68.36 71.96 74.86 77.75 78.85 78.97 77.96 77.07 76.59 76.21 76.81 76.91 76.94 76.59 77.04 76.96 76.96 77.07 76.94 76.97 76.94 76.87 76.64 76.39 76.04 75.69 75.95 75.90 74.46 72.91 72.73 73.72 74.37 75.91 77.07
59.28 56.99 51.33 49.55 48.70 50.20 52.51 54.03 54.37 54.84 57.66 62.92 65.92 64.34 65.23 69.43 78.01 78.54 78.36 78.52 76.70 76.99 77.47 76.06 76.84 76.76 76.64 76.32 76.32 76.74 76.76 76.76 76.67 76.87 76.82 76.72 76.44 76.06 75.61 75.54 75.80 75.53 74.36 72.66 72.85 73.47 75.26 76.11 76.21
54.28 55.29 48.76 47.66 48.40 50.28 52.65 54.91 54.96 56.26 58.22 60.85 63.41 63.24 61.76 68.12 76.69 77.71 78.25 78.38 77.48 77.03 77.89 77.37 76.76 76.44 76.41 76.39 76.19 76.48 76.61 76.58 76.62 76.57 76.44 76.24 76.06 75.81 75.26 75.39 75.45 75.22 74.28 72.77 72.86 73.62 75.44 76.30 75.80
52.96 50.92 48.24 48.90 48.96 49.89 51.60 55.32 54.44 56.74 58.06 55.92 59.13 59.70 60.32 64.91 75.08 77.95 78.27 78.28 77.72 77.72 77.69 77.91 77.08 76.84 76.01 76.14 76.06 75.95 76.15 76.32 76.28 76.20 76.20 75.99 75.86 75.56 75.29 75.21 75.08 74.62 74.14 73.08 72.80 73.87 76.16 76.17 74.97
54.42 52.21 47.86 49.41 48.50 48.79 52.62 54.20 55.31 55.50 54.25 57.36 57.89 57.35 57.80 64.38 70.69 75.69 77.01 77.59 77.97 77.74 77.55 77.50 77.78 77.18 76.18 75.74 75.71 75.66 75.85 75.97 76.07 76.23 76.15 76.03 75.36 74.91 74.71 74.44 74.71 74.30 73.50 72.93 72.57 73.44 76.00 75.44 74.81
53.46 48.84 47.30 47.94 48.84 50.47 53.24 52.58 54.87 55.41 55.72 56.07 56.64 57.45 57.59 65.75 68.09 68.31 70.77 74.95 76.16 76.90 77.74 78.02 77.58 77.46 77.25 76.55 76.51 75.56 75.49 75.66 75.68 75.66 75.88 75.26 74.20 74.73 73.89 73.90 74.28 73.92 73.49 72.86 72.47 72.74 75.06 75.17 74.00
50.94 48.56 47.81 51.17 52.08 51.48 52.38 52.55 53.08 53.69 53.99 54.57 55.22 56.48 57.46 59.06 62.97 62.71 64.07 66.41 69.97 75.22 77.19 78.23 78.31 77.96 77.88 76.56 77.37 75.99 74.81 74.12 73.96 73.68 74.74 73.80 73.44 74.57 73.52 74.07 73.78 73.70 73.55 72.91 72.38 72.88 73.53 75.24 75.71
50.93 48.59 49.75 50.37 52.28 52.98 52.04 52.41 53.80 52.61 52.33 54.50 54.74 55.58 56.45 57.23 58.29 59.16 61.01 62.66 64.41 69.59 76.72 77.95 79.09 78.94 78.05 77.29 77.15 76.69 75.92 75.12 74.35 74.27 74.80 74.44 73.65 74.31 73.03 73.50 72.24 72.49 73.39 72.54 71.84 72.56 73.42 75.24 75.33
49.84 51.03 51.58 52.24 53.11 52.68 51.87 53.56 52.77 53.42 54.06 55.47 55.32 55.89 56.76 57.14 57.73 58.04 58.44 59.50 62.07 64.74 69.95 76.27 78.73 78.84 78.65 78.11 77.06 77.22 76.43 75.98 75.35 75.24 75.48 74.39 73.71 73.40 72.93 72.33 72.05 72.16 71.90 72.25 72.37 71.29 73.42 74.91 76.26
51.02 51.55 52.47 53.43 53.54 53.53 53.68 52.33 52.71 53.21 54.74 56.04 56.12 56.29 56.53 57.72 58.70 59.60 59.58 59.94 61.07 63.48 66.67 72.40 77.04 78.40 78.62 78.46 77.40 77.26 76.98 76.03 76.29 75.64 75.52 74.23 73.19 73.13 73.01 73.12 72.51 71.48 71.16 71.67 71.87 70.80 72.03 73.91 75.37
52.73 52.36 52.53 53.06 53.06 53.89 52.40 52.11 52.74 53.98 55.73 55.60 56.14 56.36 57.47 58.36 59.34 60.81 61.66 61.19 61.59 62.91 65.72 70.09 74.98 77.36 77.01 77.98 77.89 77.28 77.52 76.99 76.14 75.79 75.50 75.57 73.72 74.53 72.87 72.92 73.02 72.28 71.45 71.23 71.09 71.15 70.87 72.48 74.36
53.03 50.56 51.71 51.98 52.13 51.87 52.95 50.38 50.81 54.88 55.59 55.43 56.25 57.05 57.75 58.95 60.04 60.58 61.35 63.30 63.36 64.24 66.65 69.66 73.50 76.24 76.08 77.26 77.23 76.79 77.51 76.73 75.84 74.74 76.11 75.64 74.93 73.77 72.28 72.43 72.25 72.67 72.79 72.13 71.77 71.73 72.19 70.55 72.75
50.76 50.34 47.45 51.28 51.66 51.93 51.39 47.12 52.77 54.61 54.69 54.31 55.16 55.97 56.64 58.24 59.69 61.19 62.05 63.36 64.89 65.77 66.95 70.25 69.65 73.26 76.00 76.87 76.53 77.20 77.24 76.35 75.91 75.34 75.50 75.96 74.96 72.93 74.63 72.79 72.75 73.26 73.30 72.73 71.64 71.66 71.26 70.67 70.16
49.36 46.19 46.71 48.34 51.37 50.48 50.35 48.13 51.59 53.79 53.79 53.55 54.43 54.94 55.18 56.25 58.52 61.61 62.72 63.08 64.88 66.02 67.20 70.58 72.65 72.93 76.20 77.31 76.51 76.85 76.89 75.84 75.37 75.92 74.68 75.48 73.81 74.47 74.19 72.21 73.39 74.40 73.14 72.79 72.32 72.02 72.20 71.15 70.97
45.53 45.59 46.60 46.59 49.89 50.23 49.19 48.79 51.39 53.15 53.46 53.60 54.36 54.56 55.65 56.99 58.27 60.35 62.49 64.45 64.60 65.71 67.37 70.39 72.69 74.77 76.36 75.76 76.19 75.41 74.43 75.12 76.06 76.01 75.55 75.72 74.56 75.12 74.56 72.62 70.98 72.89 73.42 72.71 72.61 72.62 72.75 72.24 71.10
48.39 46.97 45.98 48.11 50.05 48.71 48.51 49.02 50.91 53.14 53.35 53.82 54.30 55.31 56.68 57.81 59.58 60.63 61.92 64.13 64.11 65.52 67.80 70.81 72.59 75.03 75.17 73.75 72.20 70.86 69.38 70.81 71.11 71.96 74.13 75.22 75.44 75.36 75.17 73.07 72.08 73.49 71.64 73.46 73.55 72.61 72.22 71.97 72.63
48.17 46.73 46.67 48.52 50.08 49.26 49.02 48.76 51.48 52.80 53.27 54.28 55.16 55.93 57.21 58.29 59.29 59.92 61.67 63.76 64.89 65.72 66.76 70.19 72.33 74.46 74.97 73.17 72.90 70.89 69.50 68.97 69.33 70.48 73.12 74.51 74.31 75.06 74.83 74.63 73.87 71.91 70.28 72.24 73.51 72.83 70.88 71.17 72.94
47.93 46.68 46.88 46.41 49.23 50.34 49.00 47.69 49.95 51.44 53.12 54.22 55.80 57.15 57.69 57.88 58.42 60.02 61.15 62.52 64.37 65.30 66.30 68.22 72.12 73.69 74.67 74.34 74.19 74.42 73.99 73.56 71.29 70.22 71.28 73.04 74.50 74.78 75.32 74.61 74.14 74.08 72.95 70.66 71.89 71.10 71.91 69.03 71.92
45.28 49.31 48.48 47.39 46.56 43.38 48.65 41.40 47.64 50.70 51.18 52.44 53.56 56.47 57.04 57.86 58.77 59.28 60.46 61.97 62.95 63.99 65.75 66.66 69.72 72.75 73.75 74.97 73.77 74.33 69.31 66.83 65.79 67.60 68.33 72.32 73.69 73.55 73.75 74.49 74.29 74.34 72.86 72.96 72.98 72.76 71.62 70.75 68.76
47.17 49.75 48.70 48.34 46.84 46.44 46.20 43.56 47.15 49.27 47.94 51.03 54.18 55.55 56.58 57.83 58.73 59.07 60.56 62.01 62.98 64.20 64.48 65.34 66.84 68.26 71.00 73.73 74.14 72.49 71.92 69.42 69.82 69.72 70.41 71.59 72.23 72.58 72.51 73.28 73.67 73.95 73.30 72.92 73.32 72.62 70.54 69.30 69.48
50.74 48.71 48.57 48.46 46.75 40.99 45.52 44.88 45.38 47.49 48.74 50.79 54.02 54.82 55.94 57.05 58.58 59.57 60.96 62.11 62.65 63.59 65.08 66.35 67.05 67.73 68.44 68.40 69.36 69.80 69.20 69.06 66.90 67.54 67.25 66.87 67.88 69.09 71.26 72.03 72.97 73.83 73.70 72.85 72.57 73.21 72.80 70.30 71.19
49.39 46.97 40.97 40.53 40.74 39.81 45.83 42.94 46.06 48.96 50.45 51.96 53.03 54.72 56.06 57.10 57.89 58.64 59.63 59.77 61.46 62.04 63.46 64.76 66.19 66.36 67.65 68.68 68.61 68.84 68.78 68.85 68.18 67.50 65.50 67.43 65.09 65.81 69.16 71.25 72.18 71.84 73.24 73.22 72.74 72.72 72.44 72.86 71.28
48.49 47.18 41.84 35.74 38.24 41.33 45.28 40.34 46.60 50.97 52.80 53.29 54.00 55.09 56.71 56.95 57.88 58.23 58.99 59.84 60.23 61.22 62.31 62.79 65.20 65.86 66.52 66.83 67.21 67.81 68.14 65.80 65.38 66.60 66.23 64.30 64.10 65.23 68.91 69.80 70.95 71.60 72.11 72.53 72.68 71.49 71.40 73.21 72.25
47.52 44.55 49.34 43.84 44.82 40.95 43.14 46.10 49.53 51.06 50.67 51.92 52.82 54.46 55.79 56.83 57.17 57.73 58.73 59.56 59.74 60.60 60.20 62.58 63.90 65.04 65.43 65.82 66.52 66.58 66.39 65.79 64.52 65.39 66.40 63.44 65.82 64.43 66.36 68.32 69.58 70.53 70.98 71.70 72.61 70.93 70.79 71.67 72.88
48.71 50.36 43.30 44.17 35.59 35.04 40.89 42.73 43.41 46.75 48.85 50.89 51.86 53.49 55.62 57.09 56.79 57.27 57.68 58.60 59.23 60.25 61.55 62.37 63.27 63.88 64.77 65.22 65.34 64.88 65.22 65.07 64.91 65.33 64.85 64.58 64.70 65.03 65.26 66.11 67.89 69.19 69.92 70.60 71.16 70.94 71.12 70.83 70.95
46.21 45.35 46.19 45.26 43.59 37.35 36.76 41.41 49.59 48.24 49.89 50.55 52.06 53.88 55.25 56.83 56.55 56.92 57.36 58.54 59.26 59.75 59.53 60.80 62.09 63.00 63.39 64.29 64.23 64.11 63.70 64.12 64.70 64.44 64.12 63.62 64.05 63.65 63.06 63.39 64.48 65.91 67.67 69.29 70.46 70.37 70.13 69.31 70.72
48.71 46.62 45.37 41.07 39.34 41.51 41.14 41.39 51.24 51.32 51.54 52.28 52.72 53.62 55.31 55.84 56.36 56.87 57.17 57.75 58.21 58.72 59.28 60.00 61.82 62.02 62.66 63.64 63.39 63.15 63.59 63.80 64.15 64.02 63.52 63.42 62.85 62.79 61.81 61.65 61.89 62.79 64.74 67.54 68.09 67.60 69.26 68.61 68.50
MSLP
1011.29 1010.51 1009.98 1008.93 1007.18 1004.69 1002.87 1003.42 1003.82 1003.25 1003.15 1003.72 1003.84 1003.33 1003.11 1003.91 1004.23 1005.00 1007.13 1007.52 1007.69 1008.43 1009.57 1010.66 1011.21 1011.33 1011.58 1012.01 1012.14 1012.30 1012.61 1012.88 1013.24 1013.41 1013.63 1013.91 1014.14 1014.40 1014.73 1014.95 1015.16 1015.25 1015.34 1015.44 1015.59 1015.72 1015.76 1015.86 1016.01
1010.47 1010.23 1009.29 1007.02 1005.32 1003.16 1002.80 1004.00 1003.45 1003.68 1003.84 1004.16 1004.14 1004.07 1003.77 1004.50 1004.99 1006.00 1006.38 1007.65 1008.02 1008.66 1009.65 1010.26 1011.37 1011.53 1011.73 1011.90 1012.34 1012.63 1012.81 1013.06 1013.42 1013.65 1013.84 1014.08 1014.38 1014.59 1014.83 1015.07 1015.29 1015.44 1015.56 1015.67 1015.71 1015.89 1015.98 1016.03 1016.13
1010.55 1009.89 1007.42 1005.53 1004.13 1002.54 1002.55 1004.12 1004.17 1004.16 1004.32 1004.22 1003.75 1004.19 1004.33 1005.69 1006.05 1005.92 1007.13 1007.78 1008.23 1009.00 1009.61 1010.61 1011.61 1011.85 1012.13 1012.35 1012.38 1012.70 1013.10 1013.37 1013.68 1013.88 1014.06 1014.21 1014.47 1014.78 1015.03 1015.22 1015.37 1015.55 1015.71 1015.87 1015.96 1015.98 1016.15 1016.18 1016.21
1009.43 1008.59 1007.29 1005.29 1003.54 1004.66 1004.39 1004.63 1004.77 1004.31 1004.38 1004.53 1003.77 1004.47 1005.86 1007.13 1006.79 1007.15 1007.77 1008.06 1008.49 1008.91 1009.55 1011.25 1011.77 1011.92 1012.24 1012.65 1012.80 1013.03 1013.23 1013.60 1013.85 1014.07 1014.19 1014.33 1014.63 1014.94 1015.18 1015.43 1015.56 1015.68 1015.89 1015.99 1016.18 1016.09 1016.28 1016.33 1016.39
1008.88 1007.13 1005.26 1004.43 1004.53 1005.20 1005.36 1005.25 1004.99 1004.20 1004.25 1004.21 1004.44 1004.93 1006.11 1007.27 1007.46 1007.60 1007.99 1008.19 1008.33 1008.79 1009.54 1011.15 1012.01 1012.18 1012.45 1012.79 1013.05 1013.27 1013.55 1013.82 1014.01 1014.19 1014.30 1014.49 1014.79 1015.12 1015.33 1015.55 1015.72 1015.89 1016.09 1016.14 1016.35 1016.31 1016.23 1016.59 1016.72
1007.33 1006.41 1004.73 1004.07 1004.61 1005.44 1005.54 1005.59 1004.96 1004.43 1004.48 1004.71 1004.89 1005.24 1006.35 1007.16 1007.18 1007.53 1007.80 1008.13 1008.48 1009.07 1009.66 1011.03 1012.15 1012.46 1012.81 1013.07 1013.28 1013.43 1013.69 1013.98 1014.25 1014.43 1014.57 1014.74 1014.97 1015.27 1015.47 1015.69 1015.85 1016.02 1016.24 1016.27 1016.47 1016.56 1016.38 1016.61 1016.83
1006.47 1005.57 1004.02 1003.83 1004.88 1005.23 1005.64 1005.95 1005.33 1004.73 1004.61 1005.28 1005.35 1005.11 1006.36 1006.96 1007.66 1007.72 1007.99 1008.44 1008.77 1009.26 1009.66 1010.57 1011.32 1012.17 1012.79 1013.04 1013.33 1013.61 1013.81 1013.98 1014.26 1014.51 1014.80 1015.09 1015.21 1015.45 1015.68 1015.85 1015.93 1016.11 1016.28 1016.43 1016.52 1016.68 1016.62 1016.81 1017.01
1007.04 1005.78 1005.12 1004.53 1004.96 1005.24 1006.06 1005.90 1006.01 1005.38 1005.76 1006.01 1005.75 1005.23 1006.09 1007.30 1007.52 1007.53 1007.55 1007.87 1008.35 1008.87 1009.25 1009.90 1010.53 1011.19 1011.81 1012.36 1013.25 1013.57 1013.85 1014.09 1014.32 1014.59 1014.86 1015.10 1015.37 1015.62 1015.77 1015.85 1015.98 1016.14 1016.34 1016.39 1016.57 1016.72 1016.68 1016.96 1017.15
1007.81 1005.81 1004.60 1004.96 1005.00 1005.51 1006.23 1005.75 1006.30 1006.55 1005.75 1005.95 1006.18 1006.25 1007.12 1007.44 1007.28 1006.98 1007.12 1007.49 1007.77 1008.34 1008.83 1009.22 1009.77 1010.29 1010.83 1011.21 1012.54 1013.44 1013.79 1014.14 1014.39 1014.63 1014.89 1015.13 1014.56 1014.98 1015.50 1015.39 1015.85 1016.11 1016.30 1016.40 1016.53 1016.76 1016.91 1017.02 1017.35
1007.03 1005.63 1004.96 1005.67 1005.79 1005.91 1006.33 1006.35 1006.35 1006.29 1006.09 1006.11 1006.34 1006.74 1007.10 1007.25 1007.09 1006.63 1006.57 1006.59 1007.28 1007.99 1008.59 1009.00 1009.55 1010.03 1010.51 1011.02 1011.74 1012.45 1012.71 1013.17 1013.45 1013.72 1014.19 1014.30 1013.91 1014.12 1014.25 1015.07 1015.93 1016.15 1016.23 1016.39 1016.41 1016.62 1016.82 1016.88 1016.23
1007.19 1005.85 1006.79 1007.15 1007.11 1007.04 1006.73 1006.71 1006.72 1006.29 1005.88 1005.94 1006.21 1006.59 1006.93 1007.05 1007.01 1006.89 1006.59 1006.58 1006.52 1007.10 1008.28 1008.97 1009.83 1010.26 1010.41 1010.71 1011.26 1011.49 1011.86 1012.36 1012.85 1013.21 1013.60 1013.86 1013.69 1014.24 1014.54 1014.51 1015.35 1015.51 1016.10 1015.59 1016.01 1016.22 1015.83 1015.25 1014.93
1007.36 1007.53 1007.37 1007.43 1007.79 1007.57 1007.19 1007.02 1006.68 1006.49 1006.02 1006.78 1007.03 1007.23 1007.29 1007.18 1007.00 1006.81 1006.78 1006.71 1006.87 1007.34 1007.93 1008.84 1009.53 1010.29 1010.67 1010.30 1011.01 1011.09 1011.37 1011.77 1012.18 1012.67 1013.33 1013.46 1013.83 1013.88 1013.87 1013.76 1013.92 1014.46 1014.65 1014.56 1014.95 1014.76 1014.75 1014.92 1015.05
1007.38 1007.66 1007.86 1007.90 1007.91 1007.85 1007.75 1007.30 1006.85 1006.48 1006.65 1007.15 1007.13 1007.40 1007.35 1007.28 1007.33 1007.22 1007.22 1007.32 1007.45 1007.49 1007.90 1008.56 1009.45 1010.09 1010.56 1010.81 1010.60 1011.01 1011.16 1011.63 1011.71 1012.38 1012.82 1013.05 1013.56 1013.57 1013.60 1013.71 1013.78 1013.85 1014.01 1014.39 1014.57 1014.58 1014.85 1014.86 1014.83
1007.92 1007.88 1007.74 1007.82 1007.67 1007.87 1007.74 1007.07 1007.37 1006.65 1007.21 1007.04 1007.10 1006.87 1007.04 1007.23 1007.20 1007.26 1007.33 1007.39 1007.61 1007.83 1007.98 1008.41 1009.27 1010.13 1010.70 1010.74 1010.92 1010.96 1011.05 1011.19 1011.95 1011.93 1012.39 1013.26 1013.53 1013.75 1013.35 1013.75 1013.91 1013.87 1013.95 1014.03 1014.25 1014.43 1014.73 1014.57 1014.29
1008.17 1007.79 1007.56 1007.54 1007.55 1007.53 1007.71 1007.02 1006.77 1006.51 1006.96 1006.79 1006.64 1006.64 1006.65 1006.84 1006.95 1007.06 1007.02 1007.31 1007.50 1007.69 1008.09 1008.62 1009.04 1009.92 1010.57 1010.78 1010.85 1011.26 1010.89 1011.01 1011.39 1012.47 1012.32 1012.94 1013.18 1013.56 1013.90 1013.42 1013.56 1013.55 1013.76 1014.01 1014.31 1014.31 1014.60 1014.46 1014.34
1007.78 1007.46 1006.45 1006.77 1007.32 1007.54 1007.65 1005.63 1005.79 1006.47 1006.57 1006.32 1006.24 1006.21 1006.19 1006.13 1006.40 1006.62 1006.87 1007.17 1007.49 1007.85 1008.07 1008.55 1008.73 1009.26 1010.33 1010.66 1010.94 1010.75 1010.91 1010.93 1011.15 1011.75 1011.75 1012.47 1013.11 1013.48 1013.22 1013.37 1013.23 1013.25 1013.63 1013.61 1013.72 1013.95 1013.95 1014.01 1014.05
1007.07 1005.81 1006.13 1006.15 1007.05 1006.96 1007.03 1005.56 1005.64 1006.25 1006.10 1005.97 1005.93 1005.75 1005.56 1005.51 1005.71 1006.18 1006.54 1006.93 1007.34 1007.64 1007.95 1008.30 1008.75 1009.01 1009.76 1010.31 1010.76 1010.90 1010.77 1011.30 1011.35 1011.53 1011.70 1012.09 1012.57 1012.79 1013.23 1013.41 1012.81 1013.42 1013.37 1013.37 1013.32 1013.47 1013.60 1013.42 1013.69
1005.49 1006.01 1006.12 1006.09 1006.33 1006.85 1006.18 1005.45 1005.28 1005.37 1005.39 1005.20 1005.23 1005.08 1004.97 1005.00 1005.24 1005.61 1005.99 1006.62 1006.97 1007.39 1007.86 1008.12 1008.51 1008.95 1009.63 1009.91 1010.31 1010.32 1010.40 1010.58 1010.55 1010.92 1011.24 1011.93 1012.15 1012.45 1012.93 1012.92 1013.72 1013.68 1013.31 1013.33 1013.12 1013.14 1013.03 1013.31 1013.25
1006.97 1006.65 1006.18 1006.15 1006.55 1006.89 1005.95 1005.26 1004.83 1004.80 1004.66 1004.44 1004.41 1004.48 1004.62 1004.73 1004.87 1005.21 1005.73 1006.46 1006.80 1007.18 1007.51 1007.76 1008.23 1008.87 1009.35 1009.57 1009.62 1009.56 1009.70 1010.03 1010.25 1010.51 1010.90 1011.24 1011.60 1011.97 1012.50 1013.11 1013.52 1013.68 1013.87 1013.10 1012.92 1013.17 1013.30 1012.89 1013.15
1007.18 1006.62 1006.17 1006.22 1006.52 1006.68 1005.79 1004.72 1004.29 1004.10 1003.91 1004.04 1004.04 1004.09 1004.27 1004.41 1004.57 1004.85 1005.31 1005.85 1006.42 1006.75 1007.19 1007.57 1007.98 1008.65 1009.16 1009.17 1009.39 1009.26 1009.41 1009.57 1009.81 1010.09 1010.52 1010.93 1011.21 1011.50 1011.72 1012.13 1012.61 1013.33 1013.10 1013.03 1013.05 1012.95 1012.66 1012.74 1013.56
1006.77 1006.48 1006.17 1006.22 1006.20 1006.29 1005.56 1004.25 1002.93 1003.23 1003.41 1003.73 1004.02 1004.14 1004.26 1004.32 1004.46 1004.73 1005.02 1005.24 1005.82 1006.29 1006.75 1007.16 1007.68 1008.21 1008.79 1008.88 1009.43 1009.88 1009.93 1010.10 1010.05 1009.95 1010.23 1010.50 1010.93 1011.22 1011.49 1011.54 1011.80 1012.08 1012.59 1012.67 1012.77 1013.02 1012.75 1012.57 1013.56
1006.26 1006.14 1006.48 1006.35 1006.17 1005.00 1005.26 1003.25 1002.46 1002.37 1002.45 1002.88 1003.40 1003.71 1003.73 1004.05 1004.50 1004.66 1004.94 1005.14 1005.46 1005.87 1006.55 1007.03 1007.57 1007.97 1008.46 1008.89 1008.87 1009.17 1009.09 1009.06 1009.03 1009.33 1009.51 1010.21 1010.58 1010.78 1010.95 1011.25 1011.41 1011.64 1011.45 1011.75 1012.27 1012.59 1012.59 1012.56 1012.24
1006.25 1006.49 1006.54 1006.24 1005.73 1005.14 1004.45 1003.80 1001.96 1001.94 1002.12 1002.23 1002.67 1003.15 1003.60 1003.89 1004.12 1004.44 1004.80 1005.17 1005.31 1005.98 1006.42 1006.94 1007.54 1008.07 1008.27 1008.64 1008.76 1009.01 1009.39 1009.01 1009.17 1009.59 1010.25 1010.53 1010.68 1010.70 1010.63 1010.63 1010.90 1011.11 1011.28 1011.17 1011.44 1011.78 1012.19 1011.97 1012.35
1006.41 1006.69 1006.32 1006.16 1005.57 1004.11 1003.31 1002.97 1001.13 1000.68 1001.44 1001.65 1002.31 1002.95 1003.47 1003.67 1004.07 1004.43 1004.87 1005.19 1005.44 1005.67 1006.31 1006.88 1007.40 1007.88 1008.36 1008.86 1009.25 1009.41 1009.47 1009.62 1009.51 1009.78 1009.92 1009.81 1009.87 1010.07 1010.33 1010.49 1010.59 1010.69 1010.75 1010.85 1010.93 1011.17 1011.53 1011.84 1012.04
1006.47 1006.13 1005.00 1004.21 1003.75 1002.84 1003.13 1002.83 1001.39 1001.35 1001.79 1001.62 1002.16 1002.77 1003.45 1003.67 1003.84 1004.27 1004.56 1004.66 1005.28 1005.52 1006.09 1006.73 1007.25 1007.63 1008.07 1008.31 1008.74 1009.07 1009.34 1009.59 1009.71 1009.75 1009.51 1009.86 1009.65 1009.68 1009.81 1010.30 1010.42 1010.21 1010.28 1010.41 1010.48 1010.57 1010.63 1010.99 1011.39
1004.71 1005.51 1004.61 1003.41 1002.81 1002.01 1003.20 1002.10 1001.42 1001.60 1001.70 1002.10 1002.28 1002.63 1003.34 1003.71 1003.89 1004.18 1004.46 1004.72 1005.02 1005.53 1005.91 1006.34 1006.98 1007.40 1007.83 1008.09 1008.37 1008.73 1009.09 1008.95 1009.09 1009.53 1009.54 1009.59 1009.61 1009.72 1009.98 1010.19 1010.17 1010.04 1009.95 1009.88 1010.02 1010.01 1009.95 1009.92 1010.53
1004.86 1005.21 1005.26 1004.55 1003.85 1003.20 1002.42 1001.52 1001.07 1001.91 1002.01 1002.07 1002.31 1002.63 1003.18 1003.85 1004.34 1004.50 1004.67 1005.10 1005.37 1005.69 1006.01 1006.35 1006.69 1007.09 1007.49 1007.83 1008.23 1008.60 1008.87 1008.95 1008.71 1009.37 1009.75 1009.41 1009.78 1009.64 1009.82 1009.87 1009.77 1009.69 1009.55 1009.47 1009.48 1009.46 1009.32 1009.33 1009.50
1005.73 1005.24 1005.39 1005.33 1004.29 1002.77 1001.53 1000.64 1000.26 1000.97 1001.52 1001.83 1001.99 1002.33 1002.87 1003.69 1004.33 1004.59 1004.86 1005.23 1005.46 1005.59 1005.89 1006.15 1006.41 1006.70 1007.05 1007.47 1007.86 1008.05 1008.45 1008.71 1008.87 1009.24 1009.45 1009.61 1009.67 1009.65 1009.64 1009.72 1009.63 1009.37 1009.06 1008.97 1008.79 1008.84 1008.67 1008.83 1008.81
1005.46 1005.46 1005.41 1005.35 1004.62 1003.15 1001.65 1000.54 1000.70 1000.81 1001.33 1001.36 1001.48 1001.86 1002.48 1003.43 1003.92 1004.23 1004.75 1005.06 1005.32 1005.37 1005.47 1005.62 1005.94 1006.29 1006.60 1006.95 1007.14 1007.38 1007.79 1008.17 1008.55 1008.91 1009.05 1009.19 1009.25 1009.33 1009.29 1009.21 1009.21 1009.07 1008.74 1008.44 1008.28 1008.17 1008.11 1008.15 1008.15
1006.23 1005.49 1005.74 1005.84 1004.95 1004.22 1002.71 1000.53 1001.12 1001.46 1001.81 1001.93 1002.21 1002.49 1003.04 1003.63 1004.07 1004.38 1004.73 1005.03 1005.28 1005.32 1005.24 1005.26 1005.55 1005.69 1005.91 1006.42 1006.82 1006.93 1007.35 1007.71 1008.03 1008.33 1008.43 1008.58 1008.64 1008.81 1008.87 1008.82 1008.75 1008.59 1008.24 1007.93 1007.63 1007.60 1007.54 1007.42 1007.38
Wind_Speed
10 7 5 6 8 7 5 6 3 4 4 3 1 2 9 9 10 7 4 10 11 16 16 16 13 14 14 11 13 15 15 16 15 16 15 15 14 14 13 12 11 12 11 10 9 8 8 7 6
4 5 6 4 9 10 9 1 4 4 4 4 4 3 4 14 9 11 9 9 14 15 15 16 13 13 13 14 13 13 14 15 15 15 15 14 13 13 13 12 11 12 10 9 9 7 7 6 6
8 7 7 5 6 9 8 1 5 4 3 4 6 6 4 6 10 6 9 12 15 14 14 14 12 12 12 12 13 14 13 14 14 15 14 14 13 12 12 12 11 11 10 9 8 8 6 6 7
6 7 6 10 7 5 3 5 6 2 4 4 3 8 9 8 4 6 9 12 14 14 13 16 12 13 12 12 12 12 13 13 14 14 14 14 13 12 11 12 10 10 10 9 7 7 7 7 11
7 5 7 7 5 5 2 5 3 5 3 7 4 7 7 7 8 10 10 11 13 14 14 15 11 11 11 13 12 11 11 12 13 13 13 13 12 11 11 10 10 10 10 9 7 6 9 10 12
7 5 8 11 8 5 4 4 2 4 5 6 7 8 8 7 8 9 9 10 11 12 12 14 12 11 10 10 10 10 10 10 10 10 11 11 11 11 10 10 9 9 9 8 6 5 8 11 12
12 9 8 7 10 9 5 1 4 4 7 7 2 7 8 10 7 7 9 9 10 11 11 13 13 12 11 11 10 9 9 10 10 10 9 8 9 10 10 9 9 9 9 8 7 5 7 11 11
5 7 9 10 11 7 6 4 1 5 6 4 2 6 9 8 5 7 7 10 10 10 11 11 11 13 12 12 11 11 10 10 9 9 9 8 8 9 9 9 9 9 9 9 7 6 10 11 10
3 7 10 10 11 9 5 6 3 1 2 5 4 6 7 6 4 7 7 8 8 7 9 9 11 11 10 11 12 11 10 10 9 10 9 9 10 11 13 7 12 9 8 8 9 7 8 10 10
8 8 5 5 2 6 5 4 1 5 5 5 4 3 3 2 2 4 6 8 9 9 9 8 8 8 9 7 10 10 11 10 10 11 11 10 9 7 5 10 9 9 9 7 8 9 9 13 10
5 6 4 8 4 2 4 6 4 6 8 5 6 4 3 4 4 6 6 5 4 7 8 9 8 8 9 8 7 6 6 7 8 11 9 10 7 7 7 7 8 8 9 8 9 9 9 11 6
7 2 3 7 5 4 6 5 10 10 8 4 4 4 5 7 8 9 9 9 8 7 5 7 9 9 9 6 7 6 6 7 7 9 11 8 6 7 7 5 7 6 8 7 7 7 7 6 7
7 7 4 5 6 8 4 9 9 9 2 4 4 5 7 7 8 9 9 9 9 7 7 8 8 8 8 8 6 6 7 7 7 7 10 8 8 6 7 6 6 6 6 7 7 6 7 9 8
3 5 5 5 5 7 10 6 5 8 4 5 5 7 8 8 9 9 11 12 10 11 9 8 8 7 8 8 7 6 6 6 7 7 8 12 9 3 7 7 7 6 6 6 7 7 7 8 8
4 11 9 9 6 7 6 11 11 5 6 9 11 10 11 10 9 9 9 12 11 10 8 9 9 8 9 10 8 7 6 6 6 6 8 10 10 9 5 7 7 7 7 7 6 6 7 7 8
11 9 12 10 7 8 7 10 13 7 9 14 15 14 15 15 14 11 8 10 10 10 11 8 8 10 10 8 5 7 6 5 4 7 6 11 12 5 8 8 7 7 7 7 7 8 8 8 8
9 10 11 9 7 2 10 10 4 9 11 14 15 16 16 16 16 14 12 10 10 11 11 10 10 10 10 9 8 7 5 5 5 5 4 9 10 11 9 6 6 6 8 8 7 8 8 8 8
5 10 8 11 9 9 13 16 12 11 13 14 15 16 14 13 13 12 13 9 9 9 11 10 10 9 9 7 6 6 5 6 5 6 6 8 7 9 9 8 5 7 9 9 8 8 8 8 8
9 10 12 8 6 9 13 15 15 13 14 12 11 11 10 11 9 9 9 10 8 10 11 12 12 11 9 8 8 7 7 6 5 5 6 7 8 9 10 8 7 7 10 10 8 9 10 8 7
11 13 13 9 10 8 15 18 16 17 16 10 8 8 9 8 9 7 9 10 11 12 13 12 12 12 10 8 6 4 5 5 5 5 6 8 9 8 8 9 8 8 5 5 10 10 9 9 6
12 13 12 13 11 12 17 20 20 7 11 11 10 8 8 9 8 8 9 12 11 12 13 14 13 12 12 10 7 6 4 4 6 6 7 8 9 9 10 10 9 8 9 9 6 6 10 7 8
13 9 12 14 13 12 2 11 9 13 12 14 16 11 9 7 7 6 6 7 10 11 10 11 11 12 11 11 9 10 8 8 6 4 4 3 5 8 10 11 11 10 8 9 10 10 10 7 9
14 6 12 14 15 16 15 13 13 4 11 12 13 9 7 5 5 6 6 6 6 8 9 9 10 9 8 9 9 9 10 8 6 4 4 6 6 8 10 10 11 11 9 9 10 11 13 11 11
9 12 13 12 14 16 19 17 10 10 9 11 10 9 8 8 8 7 8 9 8 9 9 9 9 9 9 9 9 7 5 6 5 4 4 5 4 4 6 8 10 10 11 11 10 12 14 13 11
12 15 10 13 11 12 4 8 14 1 6 7 10 12 10 9 10 11 11 10 9 8 9 9 10 10 10 10 10 10 9 8 7 6 4 4 5 6 5 6 8 9 11 12 11 11 12 12 14
13 15 12 14 12 10 9 8 6 5 11 11 9 9 11 9 8 8 7 8 8 6 6 6 8 8 9 10 11 9 10 8 6 5 2 4 5 6 7 8 9 10 12 12 12 11 11 12 11
15 12 16 21 20 17 17 21 11 13 12 11 12 13 13 10 7 7 8 6 5 2 5 7 8 9 9 9 8 9 8 7 4 4 4 5 4 6 8 10 11 11 12 12 13 12 13 13 11
14 15 11 12 16 22 16 18 10 5 13 14 14 15 15 14 9 7 6 5 6 6 8 10 12 13 12 12 11 10 9 8 5 5 6 5 5 6 7 10 12 12 13 13 13 13 13 14 11
12 17 17 15 17 17 20 14 8 3 8 12 13 16 10 11 14 8 6 7 9 10 11 10 11 14 14 14 13 11 10 8 7 7 7 6 5 6 8 9 11 12 13 13 13 14 16 16 15
18 21 17 14 17 18 19 20 12 11 10 6 8 6 9 5 8 11 12 12 13 15 15 13 12 13 15 14 14 12 10 9 10 9 9 7 7 7 8 9 11 13 14 14 14 14 16 17 17
Wind_Direction
241 228 236 231 234 237 182 146 325 246 210 53 285 275 24 39 23 35 55 159 141 144 147 160 150 140 139 139 141 140 144 144 145 144 142 139 136 133 129 127 128 126 126 123 117 113 109 106 106
221 210 223 261 254 211 144 109 217 333 315 310 217 213 196 82 49 106 130 146 151 143 149 155 153 143 141 141 139 140 142 142 145 146 143 138 134 134 133 134 134 131 130 125 121 113 101 104 112
233 235 251 239 249 248 123 63 359 324 283 229 147 322 38 38 53 48 79 135 145 150 152 134 151 141 141 143 141 141 141 143 146 146 144 139 137 137 137 137 140 138 134 128 124 110 102 108 124
204 194 214 244 196 67 34 12 356 220 149 190 256 104 98 37 23 52 103 137 146 150 148 133 151 146 146 148 143 143 144 148 149 149 145 141 142 141 139 139 143 139 137 132 127 113 110 113 123
216 248 220 219 149 127 126 24 350 163 157 156 228 118 81 52 84 111 117 145 150 146 137 150 147 147 153 156 152 148 150 151 151 151 148 146 146 145 141 140 143 140 137 134 126 117 125 132 126
208 276 224 187 156 144 110 51 337 121 166 123 129 117 86 93 90 100 106 131 139 139 139 136 141 146 153 159 162 156 153 150 151 151 150 150 147 145 146 145 144 141 134 131 123 122 135 145 136
260 224 237 164 159 156 100 97 60 88 136 72 144 138 110 80 86 100 112 128 138 146 150 154 160 156 158 160 163 164 161 157 156 153 153 157 149 147 149 148 144 141 131 129 125 116 125 142 143
269 266 201 189 186 139 125 158 122 12 84 146 253 156 114 71 94 132 135 138 151 161 158 162 168 170 173 165 168 171 172 168 163 161 160 162 152 150 153 149 151 149 142 137 141 134 135 143 145
255 235 203 189 192 140 151 196 114 101 110 72 87 85 90 103 147 155 161 161 163 166 164 180 175 169 185 168 161 174 179 181 174 177 174 171 200 178 159 118 141 158 155 151 150 151 154 147 147
246 247 185 136 147 182 155 259 87 228 174 158 155 138 136 149 171 227 192 187 182 184 189 188 199 174 183 180 164 194 182 197 198 195 186 218 212 190 206 135 152 167 167 168 164 166 166 191 166
167 251 139 163 160 267 246 241 221 251 225 212 229 204 226 263 239 252 249 249 250 183 187 201 182 187 204 192 183 193 194 194 197 206 205 212 195 191 209 171 177 182 188 188 191 179 205 209 172
199 155 190 150 171 234 238 299 257 244 267 24 253 253 247 245 258 255 257 260 233 210 201 197 188 193 208 204 194 203 206 196 201 196 196 213 213 194 216 211 199 192 175 206 204 199 220 209 230
235 170 190 197 234 239 255 257 270 247 251 244 237 227 240 243 254 255 261 266 272 259 213 200 192 196 205 209 203 218 209 202 206 205 196 206 213 206 202 203 217 202 194 190 199 225 206 211 214
131 213 214 200 182 198 231 232 230 205 207 225 242 241 227 242 255 265 248 242 239 230 226 207 202 194 206 226 216 221 215 187 221 206 212 202 207 225 219 204 216 213 217 206 211 206 209 226 222
199 233 192 197 174 170 252 229 224 176 223 246 247 244 243 238 248 249 248 233 232 228 233 216 208 200 200 215 202 229 223 212 196 215 208 215 204 206 264 226 224 216 214 222 213 209 217 222 227
225 237 206 160 198 146 242 266 168 231 239 260 268 267 262 253 250 252 250 241 228 235 219 221 221 192 199 207 186 218 202 216 200 200 211 196 207 238 200 234 229 232 223 215 213 212 213 217 220
197 238 223 162 213 193 223 275 217 240 265 272 266 261 259 258 252 244 242 239 225 226 220 213 212 215 183 185 169 215 199 197 244 205 214 191 212 201 220 258 253 235 243 232 222 216 229 222 233
224 233 210 251 166 239 258 257 254 259 269 275 262 255 253 256 252 247 233 233 233 218 212 216 203 203 184 173 183 194 191 209 206 197 200 206 220 206 214 214 226 282 254 236 226 233 220 243 217
282 270 266 263 263 267 266 272 272 271 273 265 238 230 234 246 259 250 231 228 221 212 207 203 196 186 188 184 193 192 196 195 204 214 203 217 212 205 202 218 229 223 242 254 222 229 223 226 225
247 256 256 258 257 269 274 273 273 273 262 246 252 232 235 235 235 240 235 224 218 210 207 205 202 187 200 191 213 224 208 202 217 207 212 222 226 222 223 222 210 215 244 253 238 226 243 214 215
239 260 271 276 290 264 266 273 254 225 224 224 243 245 244 250 267 257 241 227 214 211 199 200 198 196 201 211 193 196 213 237 222 217 225 222 238 236 232 234 238 215 214 217 205 230 218 228 226
269 256 257 272 271 273 83 287 269 239 238 243 237 217 220 224 221 229 209 202 201 201 196 191 197 203 201 195 210 218 228 229 219 242 273 288 257 250 241 241 241 232 227 220 211 205 201 214 224
275 317 273 272 269 276 257 251 273 183 226 203 201 200 192 184 179 162 161 152 145 162 179 186 187 193 208 206 227 207 225 230 246 267 271 262 269 263 257 248 244 239 232 228 235 211 217 215 231
274 268 251 254 258 256 248 239 253 225 217 194 184 183 167 154 146 135 128 133 130 131 132 142 155 163 175 189 196 211 231 239 237 216 266 261 270 261 250 261 252 247 244 238 232 232 223 227 228
245 253 255 238 211 251 95 254 248 246 212 199 188 183 176 169 148 147 151 137 133 138 143 147 155 152 162 164 170 178 183 193 202 211 232 300 275 276 276 270 264 255 242 248 242 231 240 223 228
229 250 249 275 268 268 141 240 244 284 239 220 224 214 180 194 154 157 142 140 145 138 155 170 173 173 179 181 183 179 178 199 210 194 277 274 296 292 308 286 275 264 259 253 243 241 241 240 222
245 236 269 277 271 270 262 267 224 216 239 232 215 214 194 180 176 183 170 189 165 221 232 228 217 214 204 207 199 196 194 211 203 184 217 241 270 286 285 290 282 270 264 255 250 244 243 242 233
256 280 226 227 262 260 256 250 255 184 213 221 226 209 208 183 191 186 203 203 265 275 273 253 241 226 216 210 205 200 198 204 204 212 226 251 266 272 282 285 286 279 268 259 250 246 240 246 236
220 235 230 266 265 274 273 268 37 10 256 241 219 214 213 199 213 212 247 269 281 292 289 275 244 237 225 214 209 206 207 205 206 219 230 241 248 263 272 278 282 279 275 267 259 251 249 240 238
284 275 257 247 255 248 258 264 285 282 218 230 213 208 202 229 264 273 282 289 289 287 283 272 245 239 231 221 218 208 209 214 214 225 236 238 246 255 265 275 278 279 275 271 264 254 257 250 243